"Sample Date","Sample Time","Sample Value","Units","Flow Rate","Sample Interval","Number Channels","Micron Size 0","Counts/Channel 0","Micron Size 1","Counts/Channel 1","Micron Size 2","Counts/Channel 2","Micron Size 3","Counts/Channel 3","Micron Size 4","Counts/Channel 4","Micron Size 5","Counts/Channel 5","Micron Size 6","Counts/Channel 6","Micron Size 7","Counts/Channel 7","Micron Size 8","Counts/Channel 8","Micron Size 9","Counts/Channel 9","Micron Size 10","Counts/Channel 10","Micron Size 11","Counts/Channel 11","Micron Size 12","Counts/Channel 12","Micron Size 13","Counts/Channel 13","Micron Size 14","Counts/Channel 14","Micron Size 15","Counts/Channel 15","Micron Size 16","Counts/Channel 16","Micron Size 17","Counts/Channel 17","Micron Size 18","Counts/Channel 18","Micron Size 19","Counts/Channel 19","Micron Size 20","Counts/Channel 20","Micron Size 21","Counts/Channel 21","Micron Size 22","Counts/Channel 22","Micron Size 23","Counts/Channel 23","Micron Size 24","Counts/Channel 24","Micron Size 25","Counts/Channel 25","Micron Size 26","Counts/Channel 26","Micron Size 27","Counts/Channel 27","Micron Size 28","Counts/Channel 28","Micron Size 29","Counts/Channel 29","Micron Size 30","Counts/Channel 30","Micron Size 31","Counts/Channel 31"
"03/09/08","09:00:03",116611.000,"cc",28339.412,6.00,6,0.100,100013.000,0.200,14830.000,0.300,1423.000,0.500,309.000,1.000,36.000,5.000,0
"03/09/08","09:00:09",223131.000,"cc",28328.260,6.00,6,0.100,182269.000,0.200,37594.000,0.300,2917.000,0.500,323.000,1.000,28.000,5.000,0
"03/09/08","09:00:15",310441.000,"cc",28323.522,6.00,6,0.100,238725.000,0.200,65991.000,0.300,5114.000,0.500,534.000,1.000,77.000,5.000,0
"03/09/08","09:00:21",303278.000,"cc",28322.279,6.00,6,0.100,251975.000,0.200,47236.000,0.300,3574.000,0.500,434.000,1.000,59.000,5.000,0
"03/09/08","09:00:27",176191.000,"cc",28311.895,6.00,6,0.100,150241.000,0.200,23695.000,0.300,1927.000,0.500,295.000,1.000,33.000,5.000,0
"03/09/08","09:00:33",133431.000,"cc",28295.961,6.00,6,0.100,114583.000,0.200,17195.000,0.300,1375.000,0.500,244.000,1.000,34.000,5.000,0
"03/09/08","09:00:39",109851.000,"cc",28364.506,6.00,6,0.100,94575.000,0.200,13588.000,0.300,1322.000,0.500,330.000,1.000,36.000,5.000,0
"03/09/08","09:00:45",113892.000,"cc",28352.252,6.00,6,0.100,97775.000,0.200,14487.000,0.300,1314.000,0.500,278.000,1.000,38.000,5.000,0
"03/09/08","09:00:51",121501.000,"cc",28278.940,6.00,6,0.100,103324.000,0.200,16358.000,0.300,1519.000,0.500,276.000,1.000,24.000,5.000,0
"03/09/08","09:00:57",207693.000,"cc",28306.977,6.00,6,0.100,175786.000,0.200,29309.000,0.300,2301.000,0.500,279.000,1.000,18.000,5.000,0
"03/09/08","09:01:03",159338.000,"cc",28271.676,6.00,6,0.100,135471.000,0.200,21486.000,0.300,1969.000,0.500,363.000,1.000,49.000,5.000,0
"03/09/08","09:01:09",191920.000,"cc",28305.084,6.00,6,0.100,163320.000,0.200,26275.000,0.300,1991.000,0.500,300.000,1.000,34.000,5.000,0
"03/09/08","09:01:15",166080.000,"cc",28302.975,6.00,6,0.100,140478.000,0.200,22563.000,0.300,2341.000,0.500,614.000,1.000,84.000,5.000,0
"03/09/08","09:01:21",152418.000,"cc",28294.578,6.00,6,0.100,129485.000,0.200,20281.000,0.300,2102.000,0.500,491.000,1.000,59.000,5.000,0
"03/09/08","09:01:27",120215.000,"cc",28315.688,6.00,6,0.100,101663.000,0.200,15780.000,0.300,2011.000,0.500,653.000,1.000,108.000,5.000,0
"03/09/08","09:01:33",136266.000,"cc",28296.981,6.00,6,0.100,115575.000,0.200,17951.000,0.300,2137.000,0.500,531.000,1.000,72.000,5.000,0
"03/09/08","09:01:39",184960.000,"cc",28311.215,6.00,6,0.100,156089.000,0.200,25881.000,0.300,2436.000,0.500,506.000,1.000,48.000,5.000,0
"03/09/08","09:01:45",182741.000,"cc",28338.865,6.00,6,0.100,155279.000,0.200,24917.000,0.300,2111.000,0.500,386.000,1.000,48.000,5.000,0
"03/09/08","09:01:51",205927.000,"cc",28354.334,6.00,6,0.100,173943.000,0.200,28765.000,0.300,2676.000,0.500,481.000,1.000,62.000,5.000,0
"03/09/08","09:01:57",196819.000,"cc",28338.465,6.00,6,0.100,167057.000,0.200,26859.000,0.300,2392.000,0.500,453.000,1.000,58.000,5.000,0
"03/09/08","09:02:03",173991.000,"cc",28337.516,6.00,6,0.100,148517.000,0.200,23030.000,0.300,1980.000,0.500,392.000,1.000,72.000,5.000,0
"03/09/08","09:02:09",206374.000,"cc",28282.635,6.00,6,0.100,176012.000,0.200,27786.000,0.300,2162.000,0.500,353.000,1.000,61.000,5.000,0
"03/09/08","09:02:15",157347.000,"cc",28265.865,6.00,6,0.100,135039.000,0.200,20267.000,0.300,1643.000,0.500,345.000,1.000,53.000,5.000,0
"03/09/08","09:02:21",113244.000,"cc",28363.643,6.00,6,0.100,97405.000,0.200,14121.000,0.300,1321.000,0.500,352.000,1.000,45.000,5.000,0
"03/09/08","09:02:27",108147.000,"cc",28341.981,6.00,6,0.100,92921.000,0.200,13600.000,0.300,1304.000,0.500,297.000,1.000,25.000,5.000,0
"03/09/08","09:02:33",132872.000,"cc",28333.297,6.00,6,0.100,114213.000,0.200,16599.000,0.300,1624.000,0.500,390.000,1.000,46.000,5.000,0
"03/09/08","09:02:39",89426.000,"cc",28293.836,6.00,6,0.100,76588.000,0.200,11098.000,0.300,1353.000,0.500,348.000,1.000,39.000,5.000,0
"03/09/08","09:02:45",134913.000,"cc",28292.031,6.00,6,0.100,114275.000,0.200,18448.000,0.300,1767.000,0.500,370.000,1.000,53.000,5.000,0
"03/09/08","09:02:51",260742.000,"cc",28304.678,6.00,6,0.100,218482.000,0.200,38537.000,0.300,3122.000,0.500,536.000,1.000,65.000,5.000,0
"03/09/08","09:02:57",165028.000,"cc",28317.432,6.00,6,0.100,141238.000,0.200,21567.000,0.300,1816.000,0.500,357.000,1.000,50.000,5.000,0
"03/09/08","09:03:03",254848.000,"cc",28320.506,6.00,6,0.100,214418.000,0.200,37012.000,0.300,3006.000,0.500,372.000,1.000,39.000,5.000,1.000
"03/09/08","09:03:09",276708.000,"cc",28318.539,6.00,6,0.100,231126.000,0.200,41535.000,0.300,3541.000,0.500,457.000,1.000,49.000,5.000,0
"03/09/08","09:03:15",198689.000,"cc",28360.502,6.00,6,0.100,167663.000,0.200,27553.000,0.300,2771.000,0.500,606.000,1.000,96.000,5.000,0
"03/09/08","09:03:21",156531.000,"cc",28278.279,6.00,6,0.100,133230.000,0.200,20717.000,0.300,2128.000,0.500,420.000,1.000,36.000,5.000,0
"03/09/08","09:03:27",153712.000,"cc",28326.693,6.00,6,0.100,130800.000,0.200,20151.000,0.300,2164.000,0.500,535.000,1.000,62.000,5.000,0
"03/09/08","09:03:33",156367.000,"cc",28337.498,6.00,6,0.100,133624.000,0.200,20480.000,0.300,1865.000,0.500,361.000,1.000,37.000,5.000,0
"03/09/08","09:03:39",174119.000,"cc",28345.453,6.00,6,0.100,147457.000,0.200,23248.000,0.300,2490.000,0.500,806.000,1.000,118.000,5.000,0
"03/09/08","09:03:45",153717.000,"cc",28309.785,6.00,6,0.100,131486.000,0.200,19969.000,0.300,1846.000,0.500,351.000,1.000,65.000,5.000,0
"03/09/08","09:03:51",147983.000,"cc",28308.873,6.00,6,0.100,125967.000,0.200,19743.000,0.300,1885.000,0.500,350.000,1.000,38.000,5.000,0
"03/09/08","09:03:57",155845.000,"cc",28312.875,6.00,6,0.100,133155.000,0.200,20532.000,0.300,1774.000,0.500,341.000,1.000,43.000,5.000,0
"03/09/08","09:04:03",143022.000,"cc",28286.441,6.00,6,0.100,122295.000,0.200,18595.000,0.300,1690.000,0.500,401.000,1.000,41.000,5.000,0
"03/09/08","09:04:09",140493.000,"cc",28322.842,6.00,6,0.100,119663.000,0.200,18514.000,0.300,1817.000,0.500,429.000,1.000,70.000,5.000,0
"03/09/08","09:04:15",126299.000,"cc",28361.414,6.00,6,0.100,108460.000,0.200,15937.000,0.300,1492.000,0.500,363.000,1.000,47.000,5.000,0
"03/09/08","09:04:21",180484.000,"cc",28290.125,6.00,6,0.100,150893.000,0.200,26729.000,0.300,2367.000,0.500,438.000,1.000,57.000,5.000,0
"03/09/08","09:04:27",366622.000,"cc",28295.914,6.00,6,0.100,267992.000,0.200,89609.000,0.300,8256.000,0.500,683.000,1.000,82.000,5.000,0
"03/09/08","09:04:33",244552.000,"cc",28297.145,6.00,6,0.100,204484.000,0.200,36355.000,0.300,3138.000,0.500,492.000,1.000,83.000,5.000,0
"03/09/08","09:04:39",121735.000,"cc",28295.111,6.00,6,0.100,104345.000,0.200,15741.000,0.300,1332.000,0.500,276.000,1.000,41.000,5.000,0
"03/09/08","09:04:45",193959.000,"cc",28372.420,6.00,6,0.100,164076.000,0.200,27163.000,0.300,2240.000,0.500,400.000,1.000,80.000,5.000,0
"03/09/08","09:04:51",217578.000,"cc",28316.729,6.00,6,0.100,184426.000,0.200,30106.000,0.300,2475.000,0.500,487.000,1.000,84.000,5.000,0
"03/09/08","09:04:57",230634.000,"cc",28357.506,6.00,6,0.100,194656.000,0.200,32630.000,0.300,2774.000,0.500,507.000,1.000,67.000,5.000,0
"03/09/08","09:05:03",170185.000,"cc",28280.211,6.00,6,0.100,144740.000,0.200,22716.000,0.300,2137.000,0.500,539.000,1.000,53.000,5.000,0
"03/09/08","09:05:09",132539.000,"cc",28323.629,6.00,6,0.100,113731.000,0.200,16654.000,0.300,1675.000,0.500,424.000,1.000,55.000,5.000,0
"03/09/08","09:05:15",225155.000,"cc",28349.686,6.00,6,0.100,190662.000,0.200,31503.000,0.300,2537.000,0.500,394.000,1.000,59.000,5.000,0
"03/09/08","09:05:21",223002.000,"cc",28265.326,6.00,6,0.100,189474.000,0.200,30784.000,0.300,2363.000,0.500,343.000,1.000,38.000,5.000,0
"03/09/08","09:05:27",157703.000,"cc",28292.129,6.00,6,0.100,135380.000,0.200,20194.000,0.300,1721.000,0.500,361.000,1.000,47.000,5.000,0
"03/09/08","09:05:33",171024.000,"cc",28350.600,6.00,6,0.100,146046.000,0.200,22332.000,0.300,2012.000,0.500,578.000,1.000,56.000,5.000,0
"03/09/08","09:05:39",162255.000,"cc",28368.315,6.00,6,0.100,138173.000,0.200,21329.000,0.300,2115.000,0.500,564.000,1.000,74.000,5.000,0
"03/09/08","09:05:45",185254.000,"cc",28343.397,6.00,6,0.100,157625.000,0.200,24791.000,0.300,2226.000,0.500,518.000,1.000,94.000,5.000,0
"03/09/08","09:05:51",163038.000,"cc",28237.797,6.00,6,0.100,139523.000,0.200,21225.000,0.300,1862.000,0.500,385.000,1.000,43.000,5.000,0
"03/09/08","09:05:57",129995.000,"cc",28328.520,6.00,6,0.100,110988.000,0.200,16823.000,0.300,1721.000,0.500,404.000,1.000,59.000,5.000,0
"03/09/08","09:06:03",121230.000,"cc",28311.703,6.00,6,0.100,103306.000,0.200,15629.000,0.300,1753.000,0.500,485.000,1.000,57.000,5.000,0
"03/09/08","09:06:09",108188.000,"cc",28278.496,6.00,6,0.100,92128.000,0.200,13880.000,0.300,1633.000,0.500,494.000,1.000,53.000,5.000,0
"03/09/08","09:06:15",88803.000,"cc",28325.359,6.00,6,0.100,76103.000,0.200,11063.000,0.300,1284.000,0.500,312.000,1.000,41.000,5.000,0
"03/09/08","09:06:21",112198.000,"cc",28300.000,6.00,6,0.100,95827.000,0.200,14292.000,0.300,1627.000,0.500,397.000,1.000,55.000,5.000,0
"03/09/08","09:06:27",155916.000,"cc",28327.945,6.00,6,0.100,132591.000,0.200,20656.000,0.300,2110.000,0.500,503.000,1.000,56.000,5.000,0
"03/09/08","09:06:33",125760.000,"cc",28344.078,6.00,6,0.100,107128.000,0.200,16333.000,0.300,1754.000,0.500,476.000,1.000,69.000,5.000,0
"03/09/08","09:06:39",155669.000,"cc",28272.549,6.00,6,0.100,132775.000,0.200,20220.000,0.300,2052.000,0.500,533.000,1.000,89.000,5.000,0
"03/09/08","09:06:45",133284.000,"cc",28311.988,6.00,6,0.100,112393.000,0.200,17263.000,0.300,2440.000,0.500,1044.000,1.000,144.000,5.000,0
"03/09/08","09:06:51",115695.000,"cc",28294.432,6.00,6,0.100,97170.000,0.200,15237.000,0.300,2381.000,0.500,805.000,1.000,102.000,5.000,0
"03/09/08","09:06:57",113091.000,"cc",28391.816,6.00,6,0.100,95566.000,0.200,14685.000,0.300,2090.000,0.500,666.000,1.000,84.000,5.000,0
"03/09/08","09:07:03",113660.000,"cc",28332.994,6.00,6,0.100,96190.000,0.200,14642.000,0.300,2059.000,0.500,675.000,1.000,94.000,5.000,0
"03/09/08","09:07:09",152687.000,"cc",28338.252,6.00,6,0.100,129519.000,0.200,20251.000,0.300,2199.000,0.500,643.000,1.000,75.000,5.000,0
"03/09/08","09:07:15",188257.000,"cc",28283.172,6.00,6,0.100,156901.000,0.200,28377.000,0.300,2446.000,0.500,469.000,1.000,64.000,5.000,0
"03/09/08","09:07:21",324648.000,"cc",28306.775,6.00,6,0.100,270140.000,0.200,49818.000,0.300,3940.000,0.500,660.000,1.000,90.000,5.000,0
"03/09/08","09:07:27",276104.000,"cc",28275.758,6.00,6,0.100,231298.000,0.200,40755.000,0.300,3367.000,0.500,600.000,1.000,84.000,5.000,0
"03/09/08","09:07:33",177997.000,"cc",28294.234,6.00,6,0.100,151571.000,0.200,23476.000,0.300,2186.000,0.500,644.000,1.000,120.000,5.000,0
"03/09/08","09:07:39",187421.000,"cc",28311.772,6.00,6,0.100,159490.000,0.200,24693.000,0.300,2439.000,0.500,676.000,1.000,123.000,5.000,0
"03/09/08","09:07:45",270567.000,"cc",28326.197,6.00,6,0.100,225177.000,0.200,41022.000,0.300,3530.000,0.500,725.000,1.000,113.000,5.000,0
"03/09/08","09:07:51",362976.000,"cc",28342.576,6.00,6,0.100,293214.000,0.200,64017.000,0.300,5036.000,0.500,632.000,1.000,77.000,5.000,0
"03/09/08","09:07:57",393733.000,"cc",28352.830,6.00,6,0.100,316940.000,0.200,70369.000,0.300,5629.000,0.500,706.000,1.000,89.000,5.000,0
"03/09/08","09:08:03",279004.000,"cc",28300.977,6.00,6,0.100,232660.000,0.200,42493.000,0.300,3359.000,0.500,429.000,1.000,63.000,5.000,0
"03/09/08","09:08:09",212001.000,"cc",28292.293,6.00,6,0.100,179139.000,0.200,30029.000,0.300,2417.000,0.500,376.000,1.000,40.000,5.000,0
"03/09/08","09:08:15",158328.000,"cc",28309.236,6.00,6,0.100,135432.000,0.200,20785.000,0.300,1758.000,0.500,325.000,1.000,28.000,5.000,0
"03/09/08","09:08:21",168739.000,"cc",28319.393,6.00,6,0.100,143808.000,0.200,22523.000,0.300,1944.000,0.500,417.000,1.000,47.000,5.000,0
"03/09/08","09:08:27",179921.000,"cc",28344.854,6.00,6,0.100,152592.000,0.200,24377.000,0.300,2290.000,0.500,576.000,1.000,86.000,5.000,0
"03/09/08","09:08:33",156836.000,"cc",28346.322,6.00,6,0.100,133335.000,0.200,20798.000,0.300,2068.000,0.500,556.000,1.000,79.000,5.000,0
"03/09/08","09:08:39",153716.000,"cc",28283.600,6.00,6,0.100,131142.000,0.200,20024.000,0.300,2017.000,0.500,451.000,1.000,82.000,5.000,0
"03/09/08","09:08:45",160265.000,"cc",28260.332,6.00,6,0.100,137047.000,0.200,20857.000,0.300,1877.000,0.500,434.000,1.000,50.000,5.000,0
"03/09/08","09:08:51",153312.000,"cc",28351.307,6.00,6,0.100,131478.000,0.200,19674.000,0.300,1682.000,0.500,410.000,1.000,68.000,5.000,0
"03/09/08","09:08:57",208618.000,"cc",28317.303,6.00,6,0.100,177117.000,0.200,28482.000,0.300,2351.000,0.500,571.000,1.000,97.000,5.000,0
"03/09/08","09:09:03",159666.000,"cc",28354.967,6.00,6,0.100,135553.000,0.200,21430.000,0.300,2062.000,0.500,538.000,1.000,83.000,5.000,0
"03/09/08","09:09:09",187319.000,"cc",28350.357,6.00,6,0.100,159312.000,0.200,25428.000,0.300,2118.000,0.500,406.000,1.000,55.000,5.000,0
"03/09/08","09:09:15",329193.000,"cc",28276.656,6.00,6,0.100,272329.000,0.200,52740.000,0.300,3641.000,0.500,432.000,1.000,51.000,5.000,0
"03/09/08","09:09:21",239197.000,"cc",28306.844,6.00,6,0.100,201683.000,0.200,34621.000,0.300,2548.000,0.500,311.000,1.000,34.000,5.000,0
"03/09/08","09:09:27",327863.000,"cc",28341.102,6.00,6,0.100,270410.000,0.200,52984.000,0.300,4013.000,0.500,414.000,1.000,42.000,5.000,0
"03/09/08","09:09:33",303867.000,"cc",28293.324,6.00,6,0.100,229759.000,0.200,67846.000,0.300,5643.000,0.500,549.000,1.000,70.000,5.000,0
"03/09/08","09:09:39",267774.000,"cc",28284.012,6.00,6,0.100,223280.000,0.200,40383.000,0.300,3388.000,0.500,652.000,1.000,71.000,5.000,0
"03/09/08","09:09:45",180608.000,"cc",28360.516,6.00,6,0.100,152731.000,0.200,24497.000,0.300,2605.000,0.500,688.000,1.000,87.000,5.000,0
"03/09/08","09:09:51",191426.000,"cc",28318.080,6.00,6,0.100,161254.000,0.200,26551.000,0.300,2765.000,0.500,750.000,1.000,106.000,5.000,0
"03/09/08","09:09:57",195202.000,"cc",28327.955,6.00,6,0.100,164606.000,0.200,27136.000,0.300,2763.000,0.500,628.000,1.000,69.000,5.000,0
"03/09/08","09:10:03",240874.000,"cc",28371.098,6.00,6,0.100,201625.000,0.200,34739.000,0.300,3540.000,0.500,860.000,1.000,110.000,5.000,0
"03/09/08","09:10:09",374198.000,"cc",28271.391,6.00,6,0.100,304707.000,0.200,63307.000,0.300,5187.000,0.500,866.000,1.000,131.000,5.000,0
"03/09/08","09:10:15",296724.000,"cc",28303.022,6.00,6,0.100,246324.000,0.200,45343.000,0.300,4093.000,0.500,839.000,1.000,125.000,5.000,0
"03/09/08","09:10:21",154253.000,"cc",28279.539,6.00,6,0.100,129825.000,0.200,21072.000,0.300,2599.000,0.500,662.000,1.000,95.000,5.000,0
"03/09/08","09:10:27",317112.000,"cc",28338.777,6.00,6,0.100,259459.000,0.200,52235.000,0.300,4482.000,0.500,806.000,1.000,130.000,5.000,0
"03/09/08","09:10:33",212717.000,"cc",28371.641,6.00,6,0.100,179359.000,0.200,29855.000,0.300,2780.000,0.500,649.000,1.000,74.000,5.000,0
"03/09/08","09:10:39",185639.000,"cc",28276.217,6.00,6,0.100,157376.000,0.200,25538.000,0.300,2214.000,0.500,461.000,1.000,50.000,5.000,0
"03/09/08","09:10:45",326882.000,"cc",28304.014,6.00,6,0.100,268014.000,0.200,53400.000,0.300,4642.000,0.500,698.000,1.000,128.000,5.000,0
"03/09/08","09:10:51",205536.000,"cc",28369.557,6.00,6,0.100,174246.000,0.200,28361.000,0.300,2441.000,0.500,438.000,1.000,50.000,5.000,0
"03/09/08","09:10:57",220175.000,"cc",28296.738,6.00,6,0.100,185717.000,0.200,31213.000,0.300,2721.000,0.500,452.000,1.000,72.000,5.000,0
"03/09/08","09:11:03",183428.000,"cc",28321.764,6.00,6,0.100,156059.000,0.200,24654.000,0.300,2191.000,0.500,449.000,1.000,75.000,5.000,0
"03/09/08","09:11:09",174772.000,"cc",28322.652,6.00,6,0.100,148744.000,0.200,23482.000,0.300,2049.000,0.500,432.000,1.000,65.000,5.000,0
"03/09/08","09:11:15",171760.000,"cc",28298.053,6.00,6,0.100,145808.000,0.200,23315.000,0.300,2117.000,0.500,455.000,1.000,65.000,5.000,0
"03/09/08","09:11:21",169154.000,"cc",28291.404,6.00,6,0.100,142487.000,0.200,23175.000,0.300,2680.000,0.500,685.000,1.000,127.000,5.000,0
"03/09/08","09:11:27",113132.000,"cc",28320.400,6.00,6,0.100,97398.000,0.200,14127.000,0.300,1265.000,0.500,292.000,1.000,50.000,5.000,0
"03/09/08","09:11:33",217851.000,"cc",28334.920,6.00,6,0.100,183546.000,0.200,31321.000,0.300,2536.000,0.500,385.000,1.000,63.000,5.000,0
"03/09/08","09:11:39",370543.000,"cc",28316.842,6.00,6,0.100,272536.000,0.200,89972.000,0.300,7167.000,0.500,779.000,1.000,89.000,5.000,0
"03/09/08","09:11:45",442438.000,"cc",28321.795,6.00,6,0.100,303729.000,0.200,126637.000,0.300,10994.000,0.500,958.000,1.000,120.000,5.000,0
"03/09/08","09:11:51",393391.000,"cc",28292.113,6.00,6,0.100,317861.000,0.200,69357.000,0.300,5243.000,0.500,824.000,1.000,106.000,5.000,0
"03/09/08","09:11:57",337499.000,"cc",28365.408,6.00,6,0.100,278924.000,0.200,53550.000,0.300,4126.000,0.500,775.000,1.000,124.000,5.000,0
"03/09/08","09:12:03",364978.000,"cc",28332.061,6.00,6,0.100,299906.000,0.200,60232.000,0.300,4178.000,0.500,563.000,1.000,99.000,5.000,0
"03/09/08","09:12:09",379083.000,"cc",28291.033,6.00,6,0.100,289727.000,0.200,83153.000,0.300,5628.000,0.500,517.000,1.000,58.000,5.000,0
"03/09/08","09:12:15",305055.000,"cc",28322.705,6.00,6,0.100,254680.000,0.200,46460.000,0.300,3330.000,0.500,517.000,1.000,68.000,5.000,0
"03/09/08","09:12:21",333905.000,"cc",28270.160,6.00,6,0.100,278462.000,0.200,51401.000,0.300,3517.000,0.500,460.000,1.000,65.000,5.000,0
"03/09/08","09:12:27",328202.000,"cc",28370.660,6.00,6,0.100,273767.000,0.200,50255.000,0.300,3536.000,0.500,560.000,1.000,84.000,5.000,0
"03/09/08","09:12:33",257716.000,"cc",28341.055,6.00,6,0.100,218691.000,0.200,35850.000,0.300,2561.000,0.500,529.000,1.000,85.000,5.000,0
"03/09/08","09:12:39",237728.000,"cc",28313.139,6.00,6,0.100,201477.000,0.200,32935.000,0.300,2648.000,0.500,573.000,1.000,95.000,5.000,0
"03/09/08","09:12:45",187948.000,"cc",28329.059,6.00,6,0.100,160992.000,0.200,24433.000,0.300,2002.000,0.500,456.000,1.000,65.000,5.000,0
"03/09/08","09:12:51",146835.000,"cc",28310.445,6.00,6,0.100,126404.000,0.200,18536.000,0.300,1495.000,0.500,353.000,1.000,47.000,5.000,0
"03/09/08","09:12:57",176878.000,"cc",28310.748,6.00,6,0.100,151039.000,0.200,22987.000,0.300,2089.000,0.500,649.000,1.000,114.000,5.000,0
"03/09/08","09:13:03",164811.000,"cc",28265.182,6.00,6,0.100,141461.000,0.200,20983.000,0.300,1779.000,0.500,526.000,1.000,62.000,5.000,0
"03/09/08","09:13:09",158270.000,"cc",28327.186,6.00,6,0.100,135714.000,0.200,20011.000,0.300,1875.000,0.500,572.000,1.000,98.000,5.000,0
"03/09/08","09:13:15",140583.000,"cc",28378.447,6.00,6,0.100,120177.000,0.200,17797.000,0.300,1875.000,0.500,634.000,1.000,100.000,5.000,0
"03/09/08","09:13:21",166553.000,"cc",28297.070,6.00,6,0.100,141961.000,0.200,21689.000,0.300,2154.000,0.500,644.000,1.000,105.000,5.000,0
"03/09/08","09:13:27",242446.000,"cc",28340.541,6.00,6,0.100,201166.000,0.200,37398.000,0.300,3290.000,0.500,512.000,1.000,80.000,5.000,0
"03/09/08","09:13:33",217050.000,"cc",28256.670,6.00,6,0.100,183432.000,0.200,30455.000,0.300,2614.000,0.500,483.000,1.000,66.000,5.000,0
"03/09/08","09:13:39",265016.000,"cc",28352.049,6.00,6,0.100,221406.000,0.200,39429.000,0.300,3463.000,0.500,638.000,1.000,80.000,5.000,0
"03/09/08","09:13:45",247111.000,"cc",28276.348,6.00,6,0.100,208277.000,0.200,35176.000,0.300,2969.000,0.500,603.000,1.000,86.000,5.000,0
"03/09/08","09:13:51",218912.000,"cc",28300.662,6.00,6,0.100,185649.000,0.200,30155.000,0.300,2523.000,0.500,521.000,1.000,64.000,5.000,0
"03/09/08","09:13:57",194279.000,"cc",28308.406,6.00,6,0.100,165404.000,0.200,26177.000,0.300,2201.000,0.500,443.000,1.000,54.000,5.000,0
"03/09/08","09:14:03",177351.000,"cc",28302.535,6.00,6,0.100,151930.000,0.200,23019.000,0.300,1962.000,0.500,396.000,1.000,44.000,5.000,0
"03/09/08","09:14:09",164140.000,"cc",28356.424,6.00,6,0.100,140541.000,0.200,21350.000,0.300,1863.000,0.500,330.000,1.000,56.000,5.000,0
"03/09/08","09:14:15",145723.000,"cc",28369.119,6.00,6,0.100,125326.000,0.200,18618.000,0.300,1478.000,0.500,265.000,1.000,36.000,5.000,0
"03/09/08","09:14:21",239402.000,"cc",28329.049,6.00,6,0.100,202022.000,0.200,33945.000,0.300,2865.000,0.500,492.000,1.000,78.000,5.000,0
"03/09/08","09:14:27",195017.000,"cc",28254.420,6.00,6,0.100,165835.000,0.200,26459.000,0.300,2262.000,0.500,388.000,1.000,73.000,5.000,0
"03/09/08","09:14:33",154321.000,"cc",28337.244,6.00,6,0.100,130928.000,0.200,20515.000,0.300,2211.000,0.500,590.000,1.000,77.000,5.000,0
"03/09/08","09:14:39",243712.000,"cc",28245.260,6.00,6,0.100,205323.000,0.200,34598.000,0.300,3200.000,0.500,513.000,1.000,78.000,5.000,0
"03/09/08","09:14:45",227627.000,"cc",28367.975,6.00,6,0.100,191381.000,0.200,31964.000,0.300,3315.000,0.500,849.000,1.000,118.000,5.000,0
"03/09/08","09:14:51",294132.000,"cc",28358.682,6.00,6,0.100,245086.000,0.200,45106.000,0.300,3354.000,0.500,509.000,1.000,77.000,5.000,0
"03/09/08","09:14:57",269769.000,"cc",28295.287,6.00,6,0.100,226500.000,0.200,39063.000,0.300,3382.000,0.500,720.000,1.000,104.000,5.000,0
"03/09/08","09:15:03",235748.000,"cc",28353.170,6.00,6,0.100,198906.000,0.200,32630.000,0.300,3113.000,0.500,941.000,1.000,158.000,5.000,0
"03/09/08","09:15:09",203600.000,"cc",28353.398,6.00,6,0.100,173168.000,0.200,27413.000,0.300,2367.000,0.500,552.000,1.000,100.000,5.000,0
"03/09/08","09:15:15",123996.000,"cc",28286.859,6.00,6,0.100,106764.000,0.200,15313.000,0.300,1467.000,0.500,393.000,1.000,59.000,5.000,0
"03/09/08","09:15:21",144817.000,"cc",28358.592,6.00,6,0.100,123644.000,0.200,18509.000,0.300,1923.000,0.500,615.000,1.000,126.000,5.000,0
"03/09/08","09:15:27",164097.000,"cc",28333.438,6.00,6,0.100,140590.000,0.200,21027.000,0.300,1872.000,0.500,524.000,1.000,84.000,5.000,0
"03/09/08","09:15:33",182316.000,"cc",28269.303,6.00,6,0.100,155200.000,0.200,24341.000,0.300,2188.000,0.500,518.000,1.000,69.000,5.000,0
"03/09/08","09:15:39",202041.000,"cc",28284.467,6.00,6,0.100,172826.000,0.200,26928.000,0.300,1898.000,0.500,348.000,1.000,41.000,5.000,0
"03/09/08","09:15:45",177581.000,"cc",28361.723,6.00,6,0.100,152479.000,0.200,22767.000,0.300,1887.000,0.500,389.000,1.000,59.000,5.000,0
"03/09/08","09:15:51",136656.000,"cc",28296.397,6.00,6,0.100,117308.000,0.200,17208.000,0.300,1639.000,0.500,431.000,1.000,70.000,5.000,0
"03/09/08","09:15:57",112253.000,"cc",28309.078,6.00,6,0.100,96250.000,0.200,13926.000,0.300,1460.000,0.500,533.000,1.000,84.000,5.000,0
"03/09/08","09:16:03",170384.000,"cc",28317.508,6.00,6,0.100,145921.000,0.200,22418.000,0.300,1733.000,0.500,263.000,1.000,49.000,5.000,0
"03/09/08","09:16:09",166316.000,"cc",28332.039,6.00,6,0.100,141289.000,0.200,22560.000,0.300,2046.000,0.500,380.000,1.000,41.000,5.000,0
"03/09/08","09:16:15",144716.000,"cc",28293.090,6.00,6,0.100,123429.000,0.200,18929.000,0.300,1844.000,0.500,456.000,1.000,58.000,5.000,0